Location: Monteux
(44.0348°N, 4.9972°E)
Time: 13:19:21
(UTC+00:00)

NOAA 12 - Pass Details

Date: 30 November 2020
Orbit: 795 x 815 km, 98.5° (Epoch: 27 January)

Event Time Altitude Azimuth Distance (km) Brightness Sun altitude
Rises 16:36:08 0° 151° (SSE) 3,328 7.3 -6.1°
Reaches altitude 10° 16:38:30 10° 147° (SSE) 2,400 6.5 -6.5°
Maximum altitude 16:43:40 54° 71° (ENE) 986 4.2 -7.3°
Drops below altitude 10° 16:48:51 10° 355° (N) 2,409 6.4 -8.2°
Sets 16:51:14 0° 351° (N) 3,342 7.2 -8.6°
